Location: Montclair
(37.8322°N, 122.2092°W)
Time: 22:40:29
(UTC+00:00)

Cosmos 1867 - Pass Details

Date: 10 December 2024
Orbit: 773 x 801 km, 65.0° (Epoch: 19 January)

Event Time Altitude Azimuth Distance (km) Brightness Sun altitude
Rises 12:54:42 0° 196° (SSW) 3,266 6.7 -26.7°
Reaches altitude 10° 12:57:08 10° 192° (SSW) 2,345 6.0 -26.2°
Maximum altitude 13:02:23 55° 115° (ESE) 949 4.2 -25.2°
Drops below altitude 10° 13:07:42 10° 39° (NE) 2,374 6.4 -24.2°
Sets 13:10:11 0° 35° (NE) 3,310 7.1 -23.7°
